2022/11/30 15:40:00, 2.8, 1.0
2022/11/30 15:50:00, 5.6, 0.9
2022/11/30 16:00:00, 0.0, 0.8
2022/11/30 16:10:00, 0.0, 0.9
2022/11/30 16:20:00, 0.0, 0.8
2022/11/30 16:30:00, 0.0, 0.7
2022/11/30 16:40:00, 0.0, 0.7
2022/11/30 16:50:00, 0.0, 0.6
2022/11/30 17:00:00, 0.0, 0.5
2022/11/30 17:10:00, 0.1, 0.4
2022/11/30 17:20:00, 0.2, 0.4
2022/11/30 17:30:00, 0.2, 0.4
2022/11/30 17:40:00, 0.2, 0.4
2022/11/30 17:50:00, 0.2, 0.2
2022/11/30 18:00:00, 0.2, 0.2
2022/11/30 18:10:00, 0.2, 0.6
2022/11/30 18:20:00, 0.2, 0.3
2022/11/30 18:30:00, 0.1, 0.1
2022/11/30 18:40:00, 0.0, 0.2
2022/11/30 18:50:00, 0.0,-0.1
2022/11/30 19:00:00, 0.0,-0.1
2022/11/30 19:10:00, 0.0,-0.1
2022/11/30 19:20:00, 0.0, 0.1
2022/11/30 19:30:00, 0.0,-0.3
2022/11/30 19:40:00, 0.0,-0.1
2022/11/30 19:50:00, 0.0,-0.4
2022/11/30 20:00:00, 0.0, 0.1
2022/11/30 20:10:00, 0.1, 0.0
2022/11/30 20:20:00, 0.0, 0.7
2022/11/30 20:30:00, 0.0, 0.6
2022/11/30 20:40:00, 0.0, 0.6
2022/11/30 20:50:00, 0.0, 0.7
2022/11/30 21:00:00, 0.0, 0.7
2022/11/30 21:10:00, 0.0, 0.6
2022/11/30 21:20:00, 0.0, 0.5
2022/11/30 21:30:00, 0.0, 0.6
2022/11/30 21:40:00, 0.0, 0.5
2022/11/30 21:50:00, 0.0, 0.7
2022/11/30 22:00:00, 0.0, 0.6
2022/11/30 22:10:00, 0.0, 0.3
2022/11/30 22:20:00, 0.0, 0.3
2022/11/30 22:30:00, 0.0, 0.0
2022/11/30 22:40:00, 0.0, 0.2
2022/11/30 22:50:00, 0.0, 0.3
2022/11/30 23:00:00, 0.0, 0.1
2022/11/30 23:10:00, 0.0, 0.3
2022/11/30 23:20:00, 0.0, 0.4
2022/11/30 23:30:00, 0.0, 0.4
2022/11/30 23:40:00, 0.0, 0.4
2022/11/30 23:50:00, 0.0, 0.5
